Dewpoint
68 67 67 67 67 68 68 68 68 67 67 68 68 66 65 64 63 63 65 64 64 65 66 66 65 65 63 63 62 61 58 59
67 68 67 66 67 67 67 68 67 67 67 66 66 65 65 64 63 63 64 65 65 65 65 66 65 63 62 62 61 60 58 57
67 67 67 66 68 67 67 67 66 66 65 64 64 63 63 63 61 64 64 64 63 63 65 65 63 62 61 61 60 58 57 55
66 66 66 66 67 68 67 66 66 65 64 64 63 62 62 60 60 61 61 62 62 61 64 63 62 61 61 60 58 57 55 54
65 66 66 66 66 67 67 67 66 65 65 63 62 62 61 61 61 62 62 62 61 63 64 61 61 61 59 58 56 56 53 52
65 65 65 66 65 66 66 66 65 64 64 65 63 63 63 62 61 61 61 62 61 63 63 61 61 60 58 57 56 53 52 51
64 65 65 64 64 64 65 65 65 64 63 64 64 63 63 62 61 61 62 62 63 63 62 61 60 59 57 56 56 53 52 50
63 64 64 64 64 63 64 64 64 64 64 63 64 63 63 62 61 61 63 62 63 63 62 60 60 57 57 56 55 54 52 50
62 64 64 64 64 63 63 63 63 63 63 63 63 63 62 62 62 62 62 62 62 62 61 60 57 56 55 55 54 51 50 50
60 62 63 64 64 63 62 62 63 62 62 63 62 62 61 62 62 62 62 61 61 60 60 58 56 55 54 54 51 50 51 50
58 61 63 63 63 63 62 63 62 62 61 61 62 62 62 62 62 62 61 60 59 60 59 57 55 54 53 53 51 51 52 52
58 61 62 63 62 63 62 63 62 62 62 61 61 62 61 62 62 61 59 58 58 59 58 58 56 53 51 52 51 52 52 52
56 60 62 62 61 60 60 60 61 61 61 62 61 62 61 61 61 60 59 57 57 57 57 56 55 54 51 53 53 53 53 53
55 58 61 61 61 60 59 59 60 60 61 61 62 61 59 60 60 59 58 57 57 57 56 55 54 54 52 51 51 53 53 53
54 57 60 60 60 59 59 58 58 58 60 60 60 59 59 58 59 59 58 57 56 57 56 55 53 54 53 50 48 47 50 52
53 58 58 60 60 59 57 56 55 56 57 58 60 60 58 58 58 58 58 58 56 55 56 55 54 53 53 51 49 46 47 49
55 58 58 59 59 58 57 55 53 56 57 58 59 59 59 58 57 58 57 57 56 56 56 55 54 53 53 52 52 52 49 46
57 58 57 58 59 58 57 55 53 55 56 57 58 58 58 57 56 55 56 56 55 55 54 54 54 54 52 52 50 50 50 47
57 57 57 57 57 57 57 55 54 54 55 57 57 57 57 56 56 55 55 55 54 53 54 53 54 54 54 52 51 50 48 46
57 57 57 57 57 56 56 55 54 54 55 57 57 57 57 57 56 56 55 55 55 55 54 54 54 55 52 53 52 51 49 48
Wind_Speed
11 13 14 13 15 15 15 12 13 15 18 22 22 23 23 23 23 24 21 23 21 18 18 21 22 21 21 20 16 14 16 14
11 12 14 15 15 15 12 12 14 17 15 18 18 22 20 19 19 21 24 24 24 24 22 21 23 23 21 20 16 9 12 12
12 13 15 13 14 15 15 13 12 15 17 18 21 19 21 16 12 13 16 18 22 23 23 22 24 22 22 20 19 12 11 9
13 14 15 13 10 12 16 15 13 16 17 19 17 16 17 15 13 10 13 18 20 22 22 22 25 20 17 20 14 9 8 7
13 14 15 15 12 12 12 8 12 11 13 19 17 15 14 11 13 13 16 20 16 17 14 20 19 18 18 17 10 10 8 7
17 17 16 16 15 12 12 12 12 12 13 14 14 14 13 12 12 13 13 15 17 20 14 16 18 19 19 14 12 10 9 9
20 18 18 17 16 13 13 14 13 17 14 15 14 13 11 13 15 12 14 17 17 17 16 19 18 17 15 13 12 8 8 9
21 20 19 17 17 16 14 13 15 15 15 14 14 14 14 13 14 15 15 17 16 15 17 19 18 17 15 15 13 11 13 12
23 21 21 19 19 17 15 14 14 15 14 13 15 18 17 16 15 16 18 16 19 16 16 17 17 16 17 14 12 12 13 12
23 21 21 21 19 16 14 14 13 14 14 13 16 18 19 17 16 18 19 18 18 16 14 16 19 17 17 14 12 11 13 13
24 25 24 23 19 16 16 14 11 13 14 14 17 17 15 13 12 16 19 18 19 20 18 18 18 18 17 14 13 12 14 13
23 25 23 21 17 14 13 12 12 12 12 14 17 18 18 16 17 15 23 21 19 18 20 19 20 20 17 15 12 12 12 11
25 27 25 22 19 17 12 14 12 13 13 14 16 13 15 17 15 21 22 24 24 22 19 24 19 19 19 12 9 6 9 11
25 29 25 25 22 20 13 15 13 13 12 12 11 13 10 19 21 27 25 23 24 22 23 22 17 18 19 17 10 6 9 12
26 28 26 25 23 19 13 12 8 13 12 9 12 14 11 10 16 22 24 25 26 25 25 22 21 20 21 16 10 9 16 14
23 25 25 24 25 22 21 18 14 14 12 15 13 15 13 13 13 16 20 21 24 23 22 22 23 23 18 17 14 9 17 9
21 22 24 25 26 23 20 17 12 13 13 13 13 14 14 14 16 16 17 18 21 23 23 22 21 21 17 15 12 10 13 9
22 24 25 25 26 24 21 18 14 15 15 14 12 13 13 16 16 16 16 16 20 19 18 16 17 17 18 21 19 15 14 10
23 26 27 26 26 24 22 18 16 17 17 14 13 13 14 16 18 19 18 16 18 18 18 16 15 17 19 20 20 18 13 13
24 26 26 27 27 25 21 18 15 15 17 16 14 14 14 18 17 17 20 20 20 18 18 17 16 18 24 23 20 18 17 14
Wind_Direction
153 175 188 200 189 188 194 185 177 176 163 161 150 150 150 150 151 154 160 161 181 179 165 139 136 133 133 138 144 167 140 136
160 172 190 191 193 185 180 170 168 157 148 142 140 142 148 153 158 172 173 181 174 173 165 149 140 136 137 142 149 164 158 153
170 179 189 195 188 181 175 174 176 156 142 135 145 163 168 172 183 157 176 185 177 173 169 157 142 137 141 148 157 173 152 148
181 186 189 192 191 191 193 192 191 190 177 169 173 178 185 186 179 198 219 210 185 188 177 154 148 153 155 158 187 158 169 169
199 192 192 191 191 190 192 178 185 186 186 178 182 181 184 206 223 219 215 203 189 152 153 174 162 158 158 176 164 172 160 169
204 198 191 194 187 189 192 185 181 188 189 186 190 196 203 216 228 224 188 181 172 161 171 192 167 169 168 168 170 183 170 161
201 197 196 196 198 192 192 198 192 203 199 202 200 201 207 211 221 199 178 167 164 168 182 181 168 163 161 161 166 171 162 167
197 197 197 196 196 195 192 197 199 203 206 210 218 220 216 216 212 191 172 166 158 160 179 177 171 163 162 167 171 165 173 171
201 195 194 193 197 197 202 202 205 210 208 210 219 223 216 206 197 186 159 153 159 150 181 174 175 167 166 167 167 174 171 173
200 194 194 192 197 185 192 205 203 216 214 211 216 223 214 205 197 181 155 155 162 153 165 183 173 172 169 167 163 172 164 170
203 200 193 193 195 185 189 200 198 214 215 212 215 212 210 192 176 167 150 155 161 167 175 182 173 175 168 166 159 172 173 175
205 201 192 187 182 178 182 197 200 214 214 216 215 205 204 189 190 177 156 159 162 167 182 184 180 171 167 163 162 177 175 170
207 199 192 179 173 169 176 195 195 208 217 214 220 196 196 195 196 172 164 166 166 171 182 176 178 169 159 146 146 174 177 181
206 200 190 187 183 190 190 194 208 221 214 222 206 185 187 216 206 176 169 166 164 174 177 175 163 168 161 160 156 176 200 202
208 199 190 189 186 179 178 188 201 207 199 199 175 160 156 145 162 161 160 159 165 176 179 172 165 175 185 182 169 193 180 194
208 190 189 187 181 180 186 191 194 215 194 213 163 171 158 154 140 148 144 156 171 176 176 176 172 181 197 204 204 190 186 179
202 182 188 182 183 183 187 199 198 192 182 185 178 169 164 154 155 154 155 163 174 178 179 183 187 183 189 181 199 185 214 195
187 179 186 181 182 183 188 192 189 191 179 184 170 163 163 163 159 156 159 165 167 175 176 177 183 187 194 196 200 187 186 187
180 177 185 183 182 182 183 187 188 200 179 178 168 166 166 168 165 164 162 161 165 165 169 177 182 189 200 207 211 211 196 212
183 184 185 185 181 178 176 183 183 203 180 175 179 178 172 166 175 177 168 169 168 172 182 186 193 206 217 220 213 213 221 217